This is the latest recevied weather packets stored in our database for station/object W1REE. If no packets are shown the sender has not sent any weather packets the latest 10 day(s).
| Time | Temp. | Humidity | Pressure | Rain* | Wind** | Luminosity | Snow |
|---|---|---|---|---|---|---|---|
| 1777896244 | 9.44° C | 40% | 1013.3 hPa | 0 mm | - | 4 W/m² | - |
| 1777895942 | 8.89° C | 39% | 1013 hPa | 0 mm | - | 2 W/m² | - |
| 1777895639 | 8.89° C | 41% | 1013.4 hPa | 0 mm | - | 1 W/m² | - |
| 1777895336 | 9.44° C | 40% | 1013.1 hPa | 0 mm | - | 1 W/m² | - |
| 1777895034 | 9.44° C | 37% | 1013.3 hPa | 0 mm | - | 0 W/m² | - |
| 1777894731 | 10.56° C | 40% | 1013 hPa | 0 mm | - | 0 W/m² | - |
| 1777894428 | 10.56° C | 34% | 1013.3 hPa | 0 mm | - | 0 W/m² | - |
| 1777894125 | 10° C | 32% | 1013.3 hPa | 0 mm | - | 0 W/m² | - |
| 1777893822 | 9.44° C | 36% | 1013.3 hPa | 0 mm | - | 0 W/m² | - |
| 1777893519 | 8.89° C | 37% | 1013.3 hPa | 0 mm | - | 0 W/m² | - |
| 1777893215 | 9.44° C | 38% | 1013.1 hPa | 0 mm | - | 0 W/m² | - |
| 1777892912 | 9.44° C | 36% | 1013.3 hPa | 0 mm | - | 0 W/m² | - |
| 1777892608 | 9.44° C | 37% | 1013.3 hPa | 0 mm | - | 0 W/m² | - |
| 1777892304 | 10° C | 37% | 1013.3 hPa | 0 mm | - | 0 W/m² | - |
| 1777892000 | 10.56° C | 35% | 1013.3 hPa | 0 mm | - | 0 W/m² | - |
| 1777891698 | 11.11° C | 29% | 1013.1 hPa | 0 mm | - | 0 W/m² | - |
| 1777891394 | 10.56° C | 32% | 1013.4 hPa | 0 mm | - | 0 W/m² | - |
| 1777891089 | 11.67° C | 32% | 1013.3 hPa | 0 mm | - | 0 W/m² | - |
| 1777890784 | 11.67° C | 27% | 1013.4 hPa | 0 mm | - | 0 W/m² | - |
| 1777890481 | 10° C | 30% | 1013.3 hPa | 0 mm | - | 0 W/m² | - |
| 1777890176 | 9.44° C | 35% | 1013.4 hPa | 0 mm | - | 0 W/m² | - |
| 1777889873 | 9.44° C | 33% | 1013.3 hPa | 0 mm | - | 0 W/m² | - |
| 1777889571 | 8.89° C | 37% | 1013.4 hPa | 0 mm | - | 0 W/m² | - |
| 1777889268 | 8.89° C | 40% | 1013.4 hPa | 0 mm | - | 0 W/m² | - |
| 1777888966 | 9.44° C | 40% | 1013.5 hPa | 0 mm | - | 0 W/m² | - |
* Rain latest hour (hover to see other rain measurements)
** Current wind speed in m/s (hover to see current wind gust speed)